Flag for Estonia Weather past 2 weeks in Tartu, Estonia

Now
16 °F

Light snow. Mostly cloudy.


Feels Like: 16 °F
Forecast: -1 / 25 °F
Wind: No wind

Location: Tartu/Ulenurme

Current Time: Dec 29, 2014 at 8:06:31 AM

Latest Report: Dec 29, 2014 at 6:50 AM


Visibility: 6 mi

Pressure: 30.15 "Hg

Humidity: 86%

Dew point: 12 °F

Location of TartuLocation

Historic Weather in Tartu — Graph

°F

Tartu temperature yesterday

Maximum temperature yesterday: 21 °F (at 12:50 AM)
Minimum temperature yesterday: 16 °F (at 8:50 AM)
Average temperature yesterday: 20 °F

Past Weeks' High & Low Weather Summary

 TemperatureHumidityPressure
High43 °F (Dec 19, 3:50 PM)93% (Dec 15, 12:50 AM)30.15 "Hg (Dec 15, 12:50 AM)
Low16 °F (Dec 25, 6:50 PM)69% (Dec 27, 3:50 PM)29.00 "Hg (Dec 22, 9:50 PM)
Average30 °F86%29.57 "Hg
* Reported Dec 14 6:50 AM — Dec 29 6:50 AM, Tartu, Weather by CustomWeather, © 2014

Note: Actual official high and low records may vary slightly from our data, if they occured in-between our weather recording intervals... More about our weather records

Advertising

Tartu weather history for previous 24 hours

 ConditionsComfort  
Time TempWeatherWind HumidityBarometerVisibility
6:50 AM
Dec 29
16 °FLight snow. Mostly cloudy.No wind86%30.15 "Hg6 mi
5:50 AM16 °FLight snow. Mostly cloudy.2 mph86%30.15 "HgN/A
4:50 AM18 °FLight snow. Mostly cloudy.3 mph79%30.15 "HgN/A
3:50 AM18 °FLight snow. Mostly cloudy.5 mph79%30.12 "HgN/A
2:50 AM18 °FLight snow. Mostly cloudy.7 mph79%30.12 "HgN/A
1:50 AM18 °FLight snow. Mostly cloudy.7 mph79%30.12 "Hg6 mi
12:50 AM18 °FLight snow. Low clouds.7 mph86%30.12 "HgN/A
11:50 PM
Dec 28
18 °FLight snow. Mostly cloudy.6 mph86%30.12 "HgN/A
10:50 PM18 °FLight snow. Low clouds.8 mph86%30.12 "HgN/A
9:50 PM19 °FLight snow. Overcast.8 mph79%30.09 "HgN/A
8:50 PM19 °FLight snow. Overcast.10 mph79%30.09 "HgN/A
7:50 PM18 °FLight snow. Mostly cloudy.7 mph86%30.09 "HgN/A
6:50 PM18 °FLight snow. Mostly cloudy.5 mph86%30.07 "HgN/A
5:50 PM19 °FOvercast.6 mph79%30.07 "HgN/A
4:50 PM19 °FSnow flurries. Partly cloudy.8 mph86%30.07 "HgN/A
3:50 PM21 °FSnow flurries. Mostly cloudy.6 mph80%30.04 "HgN/A
2:50 PM21 °FLow clouds.5 mph86%30.04 "HgN/A
1:50 PM21 °FLight snow. Low clouds.3 mph86%30.01 "HgN/A
12:50 PM19 °FLow clouds.3 mph86%30.01 "HgN/A
11:50 AM19 °FIce fog.3 mph86%30.01 "Hg1 mi
10:50 AM19 °FIce fog.5 mph86%30.01 "Hg1 mi
9:50 AM16 °FLow clouds.3 mph93%29.98 "HgN/A
8:50 AM16 °FOvercast.5 mph86%29.98 "HgN/A
Weather by CustomWeather, © 2014

See weather overviewHow to use our weather pages